Appleton, WI

6:49 PM CDT on October 22, 2019 (GMT -0500)
Outagamie County Regional

Weather History for KATW - August, 2019

Change the Weather History Date:

Thursday, August 1, 2019

  Actual Average Record
Temperature  
Mean Temperature 66 °F -  
Max Temperature 78 °F 80 °F 96 °F (1988)
Min Temperature 53 °F 61 °F 53 °F (1976)
Growing Degree Days 16 (Base 50)    
Moisture  
Dew Point 46 °F    
Average Humidity 54    
Maximum Humidity 77    
Minimum Humidity 26    
Precipitation  
Precipitation 0.00 in - - ()
Sea Level Pressure  
Sea Level Pressure 30.19 in    
Wind  
Wind Speed 4 mph (WSW)    
Max Wind Speed 9 mph    
Max Gust Speed -    
Visibility 10 miles    
Events      
Averages and records for this station are not official NWS values.
T = Trace of Precipitation, MM = Missing Value Source: NWS Daily Summary

Daily Weather History Graph

Daily Weather History Graph

Search for Another Location

Airport or City:

Astronomy

Aug. 01, 2019 Rise Set
Actual Time 5:41 AM CDT 8:18 PM CDT
Civil Twilight 5:08 AM CDT 8:51 PM CDT
Nautical Twilight 4:26 AM CDT 9:33 PM CDT
Astronomical Twilight 3:38 AM CDT 10:20 PM CDT
Moon 6:04 AM CDT (8/1) 9:04 PM CDT (8/1)
Length of Visible Light 15h 43m
Length of Day
14h 37m
New Moon, 1% of the Moon is Illuminated
Aug 1
New Moon
Aug 7
First Quarter
Aug 15
Full
Aug 23
Last Quarter
Aug 30
New

Hourly Weather History & Observations

Time (CDT) Temp. Dew Point Humidity Pressure Visibility Wind Dir Wind Speed Gust Speed Precip Events Conditions
12:15 AM 60.8 °F 46.4 °F 59% 30.17 in 10.0 mi Calm Calm - N/A   Clear
12:35 AM 60.8 °F 46.4 °F 59% 30.18 in 10.0 mi WSW 3.5 mph - N/A   Clear
12:55 AM 55.4 °F 46.4 °F 72% 30.18 in 10.0 mi WSW 3.5 mph - N/A   Clear
1:15 AM 57.2 °F 46.4 °F 67% 30.18 in 10.0 mi West 4.6 mph - N/A   Clear
1:35 AM 59.0 °F 46.4 °F 63% 30.19 in 10.0 mi West 3.5 mph - N/A   Clear
1:55 AM 57.2 °F 46.4 °F 67% 30.18 in 10.0 mi West 5.8 mph - N/A   Clear
2:15 AM 55.4 °F 46.4 °F 72% 30.19 in 10.0 mi West 5.8 mph - N/A   Clear
2:35 AM 55.4 °F 46.4 °F 72% 30.18 in 10.0 mi West 5.8 mph - N/A   Clear
2:55 AM 55.4 °F 46.4 °F 72% 30.18 in 10.0 mi West 6.9 mph - N/A   Clear
3:35 AM 55.4 °F 46.4 °F 72% 30.19 in 10.0 mi West 8.1 mph - N/A   Clear
4:15 AM 55.4 °F 46.4 °F 72% 30.19 in 10.0 mi West 8.1 mph - N/A   Clear
4:35 AM 53.6 °F 46.4 °F 77% 30.19 in 10.0 mi West 8.1 mph - N/A   Clear
4:55 AM 53.6 °F 46.4 °F 77% 30.19 in 10.0 mi West 8.1 mph - N/A   Clear
5:15 AM 55.4 °F 48.2 °F 77% 30.20 in 10.0 mi West 8.1 mph - N/A   Clear
5:20 AM 55.4 °F 48.2 °F 77% 30.20 in 10.0 mi West 9.2 mph - N/A   Clear
5:45 AM 55.4 °F 46.4 °F 72% 30.20 in 10.0 mi WNW 5.8 mph - N/A   Clear
6:45 AM 57.2 °F 48.2 °F 72% 30.21 in 10.0 mi Calm Calm - N/A   Clear
7:45 AM 62.6 °F 48.2 °F 59% 30.22 in 10.0 mi Calm Calm - N/A   Clear
8:45 AM 68.0 °F 48.2 °F 49% 30.24 in 10.0 mi Calm Calm - N/A   Clear
9:45 AM 69.8 °F 46.4 °F 43% 30.24 in 10.0 mi Calm Calm - N/A   Partly Cloudy
10:45 AM 71.6 °F 44.6 °F 38% 30.24 in 10.0 mi Calm Calm - N/A   Clear
11:45 AM 73.4 °F 44.6 °F 36% 30.22 in 10.0 mi Calm Calm - N/A   Clear
12:45 PM 75.2 °F 42.8 °F 31% 30.21 in 10.0 mi Variable 4.6 mph - N/A   Partly Cloudy
1:45 PM 77.0 °F 41.0 °F 28% 30.20 in 10.0 mi Variable 4.6 mph - N/A   Partly Cloudy
2:45 PM 78.8 °F 42.8 °F 28% 30.19 in 10.0 mi Variable 4.6 mph - N/A   Scattered Clouds
3:45 PM 78.8 °F 41.0 °F 26% 30.18 in 10.0 mi Variable 4.6 mph - N/A   Scattered Clouds
4:45 PM 78.8 °F 41.0 °F 26% 30.17 in 10.0 mi Variable 4.6 mph - N/A   Partly Cloudy
5:45 PM 78.8 °F 42.8 °F 28% 30.17 in 10.0 mi WSW 4.6 mph - N/A   Clear
6:45 PM 78.8 °F 42.8 °F 28% 30.16 in 10.0 mi Variable 4.6 mph - N/A   Clear
7:45 PM 73.4 °F 44.6 °F 36% 30.16 in 10.0 mi Variable 4.6 mph - N/A   Clear
8:45 PM 71.6 °F 44.6 °F 38% 30.16 in 10.0 mi Variable 4.6 mph - N/A   Clear
9:45 PM 69.8 °F 48.2 °F 46% 30.17 in 10.0 mi Calm Calm - N/A   Clear
10:45 PM 69.8 °F 48.2 °F 46% 30.17 in 10.0 mi Calm Calm - N/A   Clear
10:55 PM 68.0 °F 50.0 °F 52% 30.17 in 10.0 mi Calm Calm - N/A   Clear
11:15 PM 66.2 °F 50.0 °F 56% 30.17 in 10.0 mi South 5.8 mph - N/A   Clear
11:35 PM 64.4 °F 50.0 °F 59% 30.17 in 10.0 mi South 4.6 mph - N/A   Clear
11:55 PM 64.4 °F 50.0 °F 59% 30.17 in 10.0 mi SSW 4.6 mph - N/A   Clear